SCP
0 0 0 0 0 0 0 0 0 0 0 0 0 0 0 0 0 0 0 0 0 0 0 0 0 0 0 0 0 0 0 0 0 0 0 0 0 0 0 0 0 0 0
0 0 0 0 0 0 0 0 0 0 0 0 0 0 0 0 0 0 0 0 0 0 0 0 0 0 0 0 0 0 0 0 0 0 0 0 0 0 0 0 0 0 0
0 0 0 0 0 0 0 0 0 0 0 0 0 0 0 0 0 0 0 0 0 0 0 0 0 0 0 0 0 0 0 0 0 0 0 0 0 0 0 0 0 0 0
0 0 0 0 0 0 0 0 0 0 0 0 0 0 0 0 0 0 0 0 0 0 0 0 0 0 0 0 0 0 0 0 0 0 0 0 0 0 0 0 0 0 0
0 0 0 0 0 0 0 0 0 0 0 0 0 0 0 0 0 0 0 0 0 0 0 0 0 0 0 0 0 0 0 0 0 0 0 0 0 0 0 0 0 0 0
0 0 0 0 0 0 0 0 0 0 0 0 0 0 0 0 0 0 0 0 0 0 0 0 0 0 0 0 0 0 0 0 0 0 0 0 0 0 0 0 0 0 0
0 0 0 0 0 0 0 0 0 0 0 0 0 0 0 0 0 0 0 0 0 0 0 0 0 0 0 0 0 0 0 0 0 0 0 0 0 0 0 0 0 0 0
0 0 0 0 0 0 0 0 0 0 0 0 0 0 0 0 0 0 0 0 0 0 0 0 0 0 0 0 0 0 0 0 0 0 0 0 0 0 0 0 0 0 0
0 1 1 0 0 0 0 0 0 0 0 0 0 0 0 0 0 0 0 0 0 0 0 0 0 0 0 0 0 0 0 0 0 0 0 0 0 0 0 0 0 0 0
0 1 1 1 0 0 0 0 0 0 0 0 0 0 0 0 0 0 0 0 0 0 0 0 0 0 0 0 0 0 0 0 0 0 0 0 0 0 0 0 0 0 0
0 0 1 1 0 0 0 0 0 0 0 0 0 0 0 0 0 0 0 0 0 0 0 0 0 0 0 0 0 0 0 0 0 0 0 0 0 0 0 0 0 0 0
0 0 1 1 1 0 0 0 0 0 0 0 0 0 0 0 0 0 0 0 0 0 0 0 0 0 0 0 0 0 0 0 0 0 0 0 0 0 0 0 0 0 0
0 0 1 1 1 0 0 0 0 0 0 0 0 0 0 0 0 0 0 0 0 0 0 0 0 0 0 0 0 0 0 0 0 0 0 0 0 0 0 0 0 0 0
0 0 1 1 1 0 0 0 0 0 0 0 0 0 0 0 0 0 0 0 0 0 0 0 0 0 0 0 0 0 0 0 0 0 0 0 0 0 0 0 0 0 0
0 0 0 0 0 0 0 0 0 0 0 0 0 0 0 0 0 0 0 0 0 0 0 0 0 0 0 0 0 0 0 0 0 0 0 0 0 0 0 0 0 0 0
0 0 0 0 0 0 0 0 0 0 0 0 0 0 0 0 0 0 0 0 0 0 0 0 0 0 0 0 0 0 0 0 0 0 0 0 0 0 0 0 0 0 0
1 0 0 0 1 1 1 1 1 0 0 0 0 0 0 0 0 0 0 0 0 0 0 0 0 0 0 0 0 0 0 0 0 0 0 0 0 0 0 0 0 0 0
1 1 1 0 1 1 1 1 1 1 0 0 0 0 0 0 0 0 0 0 0 0 0 0 0 0 0 0 0 0 0 0 0 0 0 0 0 0 0 0 0 0 0
1 1 1 1 1 1 1 1 1 1 0 0 0 0 0 0 0 0 0 0 0 0 0 0 0 0 0 0 0 0 0 0 0 0 0 0 0 0 0 0 0 0 0
0 1 1 1 1 1 1 1 1 1 1 0 0 0 0 0 0 0 0 0 0 0 0 0 0 0 0 0 0 0 0 0 0 0 0 0 0 0 0 0 0 0 0
0 1 1 1 1 1 1 1 1 1 1 1 1 0 0 0 0 0 0 0 0 0 0 0 0 0 0 0 0 0 0 0 0 0 0 0 0 0 0 0 0 0 0
1 1 1 1 1 1 1 1 1 1 1 1 1 1 0 0 0 0 0 0 0 0 0 0 0 0 0 0 0 0 0 0 0 0 0 0 0 0 0 0 0 0 0
1 1 1 1 1 1 1 1 1 1 1 1 1 1 1 1 0 0 0 0 0 0 0 0 0 0 0 0 0 0 0 0 0 0 0 0 0 0 0 0 0 0 0
1 1 1 1 1 1 1 1 1 1 1 1 1 1 1 1 1 1 0 0 0 0 0 0 0 0 0 0 0 0 0 0 0 0 0 0 0 0 0 0 0 0 0
0 1 1 1 1 1 1 1 1 1 1 1 1 1 1 1 1 1 1 1 0 0 0 0 0 0 0 0 0 0 0 0 0 0 0 0 0 0 0 0 0 0 0
0 0 1 1 1 1 2 2 1 1 1 1 1 1 1 2 2 1 1 1 1 0 0 0 0 0 0 0 0 0 0 0 0 0 0 0 0 0 0 0 0 0 0
Wind_Speed
6 7 13 14 15 15 14 13 13 13 14 13 13 13 13 13 13 12 13 13 14 14 14 14 14 15 15 15 15 14 14 14 14 13 13 13 13 13 13 13 11 8 13
10 10 13 14 15 15 14 14 13 14 13 13 13 13 13 12 12 12 12 12 13 13 13 14 14 14 14 14 13 13 13 13 12 12 12 10 11 12 12 11 11 7 12
11 10 12 13 15 15 14 14 13 13 13 13 13 12 12 12 12 12 12 12 12 12 12 13 13 13 12 12 12 12 12 11 11 11 9 5 6 10 11 10 10 10 10
12 10 10 13 14 15 14 14 13 13 13 12 12 12 12 12 12 12 11 11 11 11 11 11 11 11 11 11 11 11 10 10 10 9 5 4 3 8 9 9 9 9 8
10 9 10 13 14 15 14 14 13 12 12 12 12 11 12 11 11 11 11 10 10 10 10 10 10 10 10 10 9 9 9 9 8 6 4 4 3 6 7 7 7 7 7
9 8 10 13 14 15 14 13 13 12 12 12 11 11 11 11 11 11 10 10 9 9 9 9 9 8 8 8 8 8 8 8 6 3 3 3 2 4 5 5 5 5 5
9 7 9 12 13 13 13 13 13 12 12 12 11 10 10 10 11 10 10 9 8 8 8 8 8 7 7 6 6 6 6 6 4 2 2 2 2 3 3 3 3 3 3
10 8 8 11 11 11 11 12 11 11 11 11 11 10 10 10 10 9 9 8 8 7 7 7 6 6 5 5 5 4 4 3 3 1 1 1 2 1 1 1 1 1 1
8 8 6 7 8 10 10 10 10 10 10 10 10 9 9 8 8 8 7 7 7 6 6 5 5 4 4 3 3 3 3 2 1 0 1 1 3 3 2 2 2 2 2
7 7 7 6 6 6 6 9 9 9 9 9 9 8 8 7 7 7 6 6 6 6 6 5 4 3 3 2 2 2 1 1 0 1 1 3 5 5 4 4 4 4 4
8 7 7 7 6 6 5 7 7 8 8 8 7 8 7 4 4 4 5 5 6 5 5 5 5 3 2 1 1 1 0 0 1 1 2 5 7 7 7 6 6 6 6
12 10 8 8 7 6 5 5 4 4 5 5 4 5 4 3 3 3 5 6 5 5 5 5 5 3 2 0 1 1 1 1 2 2 3 7 8 9 9 9 8 8 8
10 10 10 9 8 7 5 4 3 3 3 4 5 5 4 3 2 2 2 2 3 3 2 2 2 1 2 2 2 2 2 2 2 2 4 9 10 10 11 11 10 10 10
9 10 10 9 8 8 6 5 5 4 4 4 5 6 4 3 3 3 2 3 2 2 2 2 2 2 3 3 3 3 3 3 3 3 4 9 11 12 12 12 12 12 12
10 11 11 10 10 9 7 5 6 5 5 5 4 5 6 5 4 4 3 3 3 3 3 3 3 3 4 4 4 4 5 5 5 4 4 8 11 12 13 13 14 13 13
11 11 10 11 11 9 8 7 6 6 5 5 5 6 7 5 5 5 4 4 4 3 4 4 4 4 4 3 4 5 5 5 5 5 5 6 9 11 13 14 15 15 14
10 10 10 10 10 10 10 9 6 6 6 6 6 7 7 7 6 5 5 5 4 4 4 4 4 3 3 3 5 5 5 5 5 6 5 4 5 8 11 14 14 14 14
8 9 9 8 10 11 10 8 6 6 6 6 6 6 8 8 7 6 5 5 5 4 4 4 4 3 4 4 4 4 4 4 6 6 6 5 4 4 7 10 12 13 13
8 8 9 9 10 11 10 7 7 6 7 6 6 6 7 8 8 7 6 5 5 4 5 5 4 4 4 4 5 5 5 5 6 6 6 6 5 5 4 6 9 10 12
5 6 8 9 9 8 7 5 5 6 6 6 6 7 8 7 8 7 6 6 6 5 5 5 5 5 4 4 4 5 5 5 5 5 6 5 5 5 5 5 4 5 9
5 6 7 8 8 7 6 7 7 8 7 6 7 7 8 8 9 8 6 6 6 6 7 7 5 5 5 3 2 4 4 5 6 6 5 4 5 5 4 4 4 4 4
6 7 7 8 8 8 8 6 5 5 5 5 5 6 8 9 9 8 8 7 7 6 7 7 6 4 3 3 3 2 4 4 3 4 3 4 5 3 3 4 4 4 4
6 7 7 8 8 9 8 4 3 3 3 4 5 6 7 7 7 8 8 7 6 7 6 7 7 7 5 4 5 4 3 4 3 3 2 3 3 3 3 3 4 4 4
6 5 6 6 6 7 7 7 8 8 8 8 6 5 5 6 7 7 7 7 7 6 7 7 7 6 6 5 4 5 5 3 3 4 3 2 2 3 4 3 3 3 3
4 3 4 4 5 5 6 8 9 8 8 5 4 4 5 5 6 7 7 7 7 6 7 7 6 7 6 6 5 3 5 5 5 5 6 4 2 2 3 3 3 2 2
3 2 2 3 4 3 5 6 8 9 8 6 5 5 5 4 4 5 6 6 6 6 6 6 6 7 7 7 6 5 4 4 4 5 7 6 5 4 3 2 2 2 2
Wind_Direction
165 164 161 155 150 148 144 139 136 131 129 127 123 122 119 117 115 114 110 106 104 100 97 96 94 93 90 87 84 83 82 80 79 77 78 79 81 82 80 75 71 65 73
151 158 157 155 152 149 146 143 140 138 135 133 129 126 123 120 118 115 111 108 106 103 101 99 97 95 93 90 87 85 84 82 80 76 72 72 77 81 81 80 78 75 74
144 153 154 154 152 150 149 146 144 143 141 137 135 132 129 125 122 118 115 112 109 106 104 102 100 99 97 93 90 89 86 85 83 76 67 49 68 80 82 79 76 74 74
146 149 152 152 152 152 152 152 150 148 144 141 138 137 135 132 129 125 122 118 115 112 110 107 104 103 102 97 94 92 90 87 84 77 55 42 50 79 80 78 75 72 70
144 146 151 152 154 154 155 156 155 152 148 145 142 140 140 138 134 130 127 125 121 119 117 114 109 105 104 100 97 95 94 89 84 72 54 40 36 76 78 76 73 68 64
143 145 152 154 157 157 158 159 158 155 152 150 148 144 141 141 137 133 131 129 127 126 125 121 116 110 106 101 100 98 97 91 80 64 49 35 26 69 78 80 80 72 64
146 147 156 157 160 160 162 162 161 159 157 156 153 149 146 144 140 138 136 134 132 132 132 129 126 119 111 104 104 103 100 96 87 70 43 15 6 55 74 76 75 69 57
151 149 156 160 161 163 165 165 165 164 162 159 158 155 152 150 149 147 145 144 142 142 142 137 133 127 121 114 109 105 101 94 87 65 14 322 310 358 34 48 22 12 9
149 150 154 159 163 166 167 166 167 165 163 161 162 159 156 154 154 152 154 156 156 155 153 151 148 143 138 129 117 105 104 100 93 331 299 284 284 294 304 302 291 294 297
153 158 159 159 161 163 167 170 170 169 167 166 164 161 160 159 158 157 160 168 172 172 171 170 167 167 167 156 138 118 110 92 97 286 287 281 282 281 287 289 284 280 282
173 173 170 167 166 165 167 173 173 173 173 170 168 167 162 158 159 162 174 181 185 185 187 189 191 191 185 192 224 236 140 205 252 264 266 275 279 278 281 282 281 277 276
186 185 182 179 174 171 174 167 170 172 173 171 167 168 163 161 168 172 185 194 195 196 202 206 207 203 198 224 282 293 256 252 255 257 262 273 276 278 281 279 279 278 275
190 188 189 188 182 178 176 170 173 171 172 176 175 173 167 164 169 177 178 194 200 203 207 219 223 211 208 220 244 254 254 253 250 256 263 272 277 278 280 281 279 279 278
191 196 193 190 189 188 181 180 180 182 183 186 184 177 170 175 184 187 193 196 195 195 199 208 216 227 233 238 243 253 256 253 251 252 258 267 273 277 280 282 282 282 281
197 201 197 193 194 192 188 190 191 193 193 191 186 185 181 185 192 193 199 201 203 199 202 210 221 232 240 246 246 248 254 256 257 254 260 265 270 275 279 282 283 283 283
203 204 201 198 197 193 195 196 196 194 194 193 196 196 191 194 195 195 201 204 208 207 208 210 219 228 239 243 252 250 252 256 256 256 255 263 265 269 274 280 283 284 284
205 202 203 204 198 197 200 199 198 196 194 200 204 200 198 198 198 200 205 210 213 208 208 213 224 229 242 246 253 254 253 254 256 257 256 253 258 264 268 274 279 282 284
205 202 202 204 201 201 202 200 200 198 198 205 204 202 204 203 201 201 208 215 210 202 203 210 217 226 239 245 253 257 253 254 256 256 255 254 252 257 263 268 273 278 283
209 204 201 203 204 205 203 200 201 199 203 206 204 205 206 206 203 205 212 213 203 205 209 215 218 218 236 246 252 258 255 253 254 253 254 254 251 251 252 264 265 271 277
215 210 206 204 207 201 198 197 201 207 211 209 209 210 206 206 204 206 213 211 201 207 214 214 222 221 230 240 255 264 261 256 252 250 253 254 251 249 248 252 259 266 268
216 213 213 206 206 193 194 200 204 213 213 212 213 210 206 206 205 206 212 209 206 212 218 216 217 227 235 215 250 279 271 254 251 252 249 251 255 250 245 246 249 253 266
223 219 219 217 209 203 205 203 204 202 207 211 209 209 209 207 205 206 211 212 208 214 219 217 213 221 223 192 201 261 297 309 285 256 249 246 253 250 250 249 245 246 251
233 228 224 223 218 211 206 190 184 189 198 204 210 213 213 210 208 208 210 211 209 210 219 219 215 219 228 215 200 206 238 260 304 295 255 249 254 249 254 252 249 250 250
245 239 234 230 226 217 201 197 198 205 215 217 213 212 208 206 210 212 213 213 213 213 219 219 214 217 221 230 219 218 225 216 251 295 289 266 256 253 258 258 257 254 252
257 247 240 238 233 221 206 205 207 215 221 218 198 201 207 209 212 214 214 213 215 218 222 220 215 216 219 226 221 215 229 233 230 249 276 285 290 263 257 255 252 254 257
316 299 257 237 238 222 210 208 208 214 217 208 203 207 211 212 215 218 216 215 217 220 223 223 220 219 223 224 224 218 214 223 225 232 254 265 271 265 259 245 241 244 247